| time (UTC) | temp F | wind direction | speed MPH | gust MPH | rain 1hr in | rain 24hr in | rain mn in | humidity % | barometer mb |
| 20260507040537 | 47 | 106 | 0.0 | 0.0 | 0.00 | 0.00 | 0.00 | 98 | 1010.0 |
| 20260507040033 | 47 | 106 | 0.0 | 0.0 | 0.00 | 0.50 | 0.50 | 98 | 1010.0 |
| 20260507035529 | 46 | 91 | 0.0 | 0.0 | 0.00 | 0.50 | 0.50 | 98 | 1010.0 |
| 20260507035026 | 47 | 109 | 0.0 | 0.0 | 0.00 | 0.50 | 0.50 | 98 | 1010.0 |
| 20260507034523 | 47 | 111 | 0.0 | 0.0 | 0.00 | 0.50 | 0.50 | 98 | 1010.3 |
| 20260507034021 | 47 | 109 | 0.0 | 0.0 | 0.00 | 0.50 | 0.50 | 98 | 1010.0 |
| 20260507033518 | 47 | 97 | 0.0 | 0.0 | 0.00 | 0.50 | 0.50 | 98 | 1010.0 |
| 20260507033015 | 47 | 96 | 0.0 | 0.0 | 0.00 | 0.50 | 0.50 | 98 | 1010.0 |
| 20260507032512 | 47 | 101 | 0.0 | 0.0 | 0.00 | 0.50 | 0.50 | 98 | 1010.3 |
| 20260507032008 | 47 | 74 | 0.0 | 0.0 | 0.00 | 0.50 | 0.50 | 98 | 1010.3 |
| 20260507031504 | 47 | 103 | 0.0 | 0.0 | 0.00 | 0.50 | 0.50 | 98 | 1010.3 |
| 20260507031002 | 47 | 104 | 0.0 | 0.0 | 0.00 | 0.50 | 0.50 | 98 | 1010.0 |
| 20260507030459 | 46 | 87 | 0.0 | 0.0 | 0.00 | 0.50 | 0.50 | 98 | 1010.7 |
| 20260507025956 | 47 | 101 | 0.0 | 0.0 | 0.00 | 0.50 | 0.50 | 98 | 1010.3 |
| 20260507025453 | 47 | 95 | 0.0 | 0.0 | 0.00 | 0.50 | 0.50 | 98 | 1010.7 |
| 20260507024951 | 47 | 105 | 0.0 | 0.0 | 0.00 | 0.50 | 0.50 | 98 | 1010.3 |
| 20260507024448 | 47 | 78 | 2.0 | 2.0 | 0.00 | 0.50 | 0.50 | 98 | 1010.7 |
| 20260507023944 | 46 | 103 | 0.0 | 0.0 | 0.00 | 0.50 | 0.50 | 98 | 1010.3 |
| 20260507023440 | 47 | 105 | 0.0 | 0.0 | 0.00 | 0.50 | 0.50 | 98 | 1010.7 |
| 20260507022938 | 46 | 101 | 0.0 | 0.0 | 0.00 | 0.50 | 0.50 | 98 | 1010.3 |
| 20260507022435 | 46 | 99 | 0.0 | 2.0 | 0.00 | 0.50 | 0.50 | 98 | 1010.7 |
| 20260507021930 | 46 | 102 | 0.0 | 0.0 | 0.00 | 0.50 | 0.50 | 98 | 1010.3 |
| 20260507021425 | 46 | 93 | 0.0 | 0.0 | 0.00 | 0.50 | 0.50 | 98 | 1010.7 |
| 20260507020924 | 46 | 102 | 0.0 | 0.0 | 0.00 | 0.50 | 0.50 | 98 | 1010.3 |
| 20260507020420 | 46 | 94 | 0.0 | 0.0 | 0.00 | 0.50 | 0.50 | 98 | 1010.3 |
| 20260507015917 | 47 | 110 | 0.0 | 0.0 | 0.00 | 0.50 | 0.50 | 98 | 1010.7 |
| 20260507015415 | 47 | 99 | 0.0 | 0.0 | 0.00 | 0.50 | 0.50 | 98 | 1010.3 |
| 20260507014912 | 47 | 104 | 0.0 | 0.0 | 0.00 | 0.50 | 0.50 | 98 | 1010.7 |
| 20260507014408 | 47 | 103 | 0.0 | 0.0 | 0.00 | 0.50 | 0.50 | 98 | 1010.3 |
| 20260507013905 | 47 | 105 | 1.0 | 2.0 | 0.00 | 0.50 | 0.50 | 98 | 1010.3 |
| 20260507013402 | 47 | 56 | 0.0 | 2.0 | 0.00 | 0.50 | 0.50 | 98 | 1010.3 |
| 20260507012900 | 47 | 83 | 0.0 | 0.0 | 0.00 | 0.50 | 0.50 | 98 | 1010.0 |
| 20260507012356 | 47 | 103 | 0.0 | 0.0 | 0.00 | 0.50 | 0.50 | 98 | 1010.3 |
| 20260507011853 | 47 | 103 | 0.0 | 0.0 | 0.00 | 0.50 | 0.50 | 98 | 1010.3 |
| 20260507011350 | 47 | 94 | 0.0 | 0.0 | 0.00 | 0.50 | 0.50 | 98 | 1010.3 |
| 20260507010849 | 48 | 79 | 0.0 | 2.0 | 0.00 | 0.50 | 0.50 | 98 | 1010.0 |
| 20260507010345 | 48 | 102 | 0.0 | 0.0 | 0.00 | 0.50 | 0.50 | 98 | 1010.0 |
| 20260507005843 | 48 | 99 | 0.0 | 0.0 | 0.02 | 0.49 | 0.49 | 98 | 1010.3 |
| 20260507005339 | 49 | 99 | 0.0 | 0.0 | 0.02 | 0.49 | 0.49 | 98 | 1010.0 |
| 20260507004836 | 49 | 103 | 0.0 | 0.0 | 0.02 | 0.49 | 0.49 | 98 | 1010.0 |
| 20260507004333 | 49 | 105 | 0.0 | 0.0 | 0.02 | 0.49 | 0.49 | 98 | 1009.7 |
| 20260507003830 | 49 | 86 | 0.0 | 0.0 | 0.01 | 0.48 | 0.48 | 98 | 1009.7 |
| 20260507003326 | 50 | 103 | 0.0 | 0.0 | 0.01 | 0.48 | 0.48 | 98 | 1010.0 |
| 20260507002821 | 50 | 92 | 0.0 | 0.0 | 0.01 | 0.48 | 0.48 | 98 | 1009.7 |
| 20260507002317 | 50 | 106 | 0.0 | 0.0 | 0.00 | 0.47 | 0.47 | 98 | 1009.7 |
| 20260507001815 | 50 | 104 | 0.0 | 0.0 | 0.00 | 0.47 | 0.47 | 98 | 1009.3 |
| 20260507001312 | 50 | 100 | 0.0 | 0.0 | 0.00 | 0.47 | 0.47 | 98 | 1009.3 |
| 20260507000808 | 50 | 103 | 0.0 | 0.0 | 0.00 | 0.47 | 0.47 | 98 | 1009.0 |
| 20260507000306 | 50 | 97 | 0.0 | 0.0 | 0.00 | 0.47 | 0.47 | 98 | 1009.0 |
| 20260506235800 | 50 | 92 | 0.0 | 0.0 | 0.00 | 0.47 | 0.47 | 98 | 1009.0 |
| 20260506235256 | 50 | 106 | 0.0 | 0.0 | 0.00 | 0.47 | 0.47 | 98 | 1009.3 |
| 20260506234753 | 50 | 106 | 0.0 | 0.0 | 0.00 | 0.47 | 0.47 | 98 | 1008.6 |
| 20260506234251 | 50 | 91 | 0.0 | 0.0 | 0.00 | 0.47 | 0.47 | 98 | 1008.3 |
| 20260506233748 | 50 | 98 | 0.0 | 0.0 | 0.00 | 0.47 | 0.47 | 98 | 1008.6 |
| 20260506233244 | 50 | 99 | 0.0 | 0.0 | 0.00 | 0.47 | 0.47 | 98 | 1008.3 |
| 20260506232741 | 50 | 107 | 0.0 | 0.0 | 0.00 | 0.47 | 0.47 | 98 | 1008.3 |
| 20260506232236 | 50 | 103 | 0.0 | 0.0 | 0.00 | 0.47 | 0.47 | 98 | 1008.0 |
| 20260506231733 | 50 | 105 | 0.0 | 0.0 | 0.00 | 0.47 | 0.47 | 98 | 1008.3 |
| 20260506231232 | 50 | 109 | 0.0 | 0.0 | 0.00 | 0.47 | 0.47 | 98 | 1008.0 |
| 20260506230728 | 50 | 97 | 1.0 | 2.0 | 0.00 | 0.47 | 0.47 | 98 | 1008.0 |
| 20260506230225 | 49 | 93 | 0.0 | 0.0 | 0.00 | 0.47 | 0.47 | 98 | 1008.0 |
| 20260506225721 | 49 | 156 | 0.0 | 0.0 | 0.01 | 0.46 | 0.46 | 98 | 1008.0 |
| 20260506225219 | 49 | 101 | 0.0 | 0.0 | 0.01 | 0.46 | 0.46 | 98 | 1007.6 |
| 20260506224715 | 49 | 97 | 0.0 | 0.0 | 0.01 | 0.46 | 0.46 | 98 | 1007.6 |
| 20260506224212 | 49 | 115 | 0.0 | 0.0 | 0.01 | 0.46 | 0.46 | 98 | 1007.6 |
| 20260506223708 | 49 | 97 | 1.0 | 2.0 | 0.01 | 0.46 | 0.46 | 98 | 1007.6 |
| 20260506223204 | 49 | 87 | 0.0 | 2.0 | 0.01 | 0.46 | 0.46 | 98 | 1007.3 |
| 20260506222701 | 49 | 93 | 0.0 | 0.0 | 0.01 | 0.46 | 0.46 | 98 | 1007.3 |
| 20260506222156 | 49 | 27 | 2.0 | 3.0 | 0.01 | 0.46 | 0.46 | 98 | 1007.3 |
| 20260506221655 | 49 | 92 | 0.0 | 2.0 | 0.01 | 0.46 | 0.46 | 98 | 1006.9 |
| 20260506221153 | 50 | 86 | 0.0 | 0.0 | 0.01 | 0.46 | 0.46 | 97 | 1007.3 |
| 20260506220649 | 50 | 76 | 0.0 | 0.0 | 0.01 | 0.46 | 0.46 | 97 | 1006.6 |
| 20260506220144 | 50 | 80 | 0.0 | 2.0 | 0.01 | 0.46 | 0.46 | 97 | 1006.9 |
| 20260506215641 | 51 | 99 | 0.0 | 0.0 | 0.04 | 0.45 | 0.45 | 97 | 1006.6 |
| 20260506215136 | 52 | 75 | 0.0 | 2.0 | 0.04 | 0.45 | 0.45 | 97 | 1006.3 |
| 20260506214634 | 53 | 81 | 0.0 | 0.0 | 0.04 | 0.45 | 0.45 | 98 | 1006.3 |
| 20260506214131 | 54 | 56 | 0.0 | 2.0 | 0.04 | 0.45 | 0.45 | 97 | 1005.9 |
| 20260506213630 | 55 | 65 | 1.0 | 2.0 | 0.04 | 0.45 | 0.45 | 98 | 1005.9 |
| 20260506213126 | 55 | 225 | 6.0 | 7.0 | 0.04 | 0.45 | 0.45 | 97 | 1006.3 |
| 20260506212624 | 55 | 220 | 6.0 | 7.0 | 0.03 | 0.44 | 0.44 | 98 | 1005.9 |
| 20260506212118 | 56 | 203 | 3.0 | 5.0 | 0.03 | 0.44 | 0.44 | 97 | 1005.6 |
| 20260506211614 | 57 | 112 | 1.0 | 3.0 | 0.03 | 0.44 | 0.44 | 98 | 1005.6 |
| 20260506211111 | 57 | 76 | 0.0 | 0.0 | 0.02 | 0.43 | 0.43 | 97 | 1005.6 |
| 20260506210608 | 59 | 59 | 1.0 | 2.0 | 0.01 | 0.42 | 0.42 | 97 | 1005.3 |
| 20260506210104 | 61 | 127 | 1.0 | 2.0 | 0.00 | 0.41 | 0.41 | 97 | 1004.6 |
| 20260506205601 | 62 | 77 | 0.0 | 2.0 | 0.00 | 0.38 | 0.38 | 98 | 1004.9 |
| 20260506205056 | 62 | 72 | 1.0 | 2.0 | 0.00 | 0.38 | 0.38 | 98 | 1004.2 |
| 20260506204555 | 62 | 103 | 0.0 | 0.0 | 0.00 | 0.38 | 0.38 | 98 | 1004.2 |
| 20260506204051 | 62 | 105 | 0.0 | 0.0 | 0.00 | 0.38 | 0.38 | 98 | 1004.2 |
| 20260506203550 | 62 | 104 | 0.0 | 0.0 | 0.00 | 0.38 | 0.38 | 98 | 1004.6 |
| 20260506203046 | 62 | 86 | 0.0 | 0.0 | 0.00 | 0.38 | 0.38 | 98 | 1004.6 |
| 20260506202544 | 62 | 102 | 0.0 | 0.0 | 0.00 | 0.38 | 0.38 | 98 | 1004.2 |
| 20260506202040 | 63 | 104 | 0.0 | 0.0 | 0.00 | 0.38 | 0.38 | 98 | 1004.6 |
| 20260506201538 | 63 | 100 | 0.0 | 0.0 | 0.00 | 0.38 | 0.38 | 98 | 1004.6 |
| 20260506201034 | 62 | 101 | 0.0 | 0.0 | 0.00 | 0.38 | 0.38 | 98 | 1004.6 |
| 20260506200530 | 62 | 65 | 0.0 | 0.0 | 0.00 | 0.38 | 0.38 | 98 | 1004.6 |
| 20260506200027 | 62 | 103 | 0.0 | 0.0 | 0.00 | 0.38 | 0.38 | 98 | 1004.6 |
| 20260506195524 | 62 | 89 | 0.0 | 2.0 | 0.00 | 0.38 | 0.38 | 98 | 1004.6 |
| 20260506195020 | 62 | 102 | 0.0 | 0.0 | 0.00 | 0.38 | 0.38 | 98 | 1004.6 |
| 20260506194518 | 62 | 108 | 0.0 | 0.0 | 0.00 | 0.38 | 0.38 | 98 | 1004.9 |
| 20260506194014 | 62 | 119 | 0.0 | 0.0 | 0.00 | 0.38 | 0.38 | 98 | 1004.9 |
| 20260506193512 | 62 | 112 | 0.0 | 0.0 | 0.00 | 0.38 | 0.38 | 98 | 1004.9 |
| 20260506193008 | 62 | 99 | 0.0 | 0.0 | 0.00 | 0.38 | 0.38 | 98 | 1005.3 |
| 20260506192505 | 62 | 103 | 0.0 | 0.0 | 0.00 | 0.38 | 0.38 | 98 | 1004.9 |
| 20260506192001 | 62 | 99 | 0.0 | 2.0 | 0.00 | 0.38 | 0.38 | 98 | 1004.9 |
| 20260506191458 | 62 | 98 | 0.0 | 0.0 | 0.00 | 0.38 | 0.38 | 98 | 1004.9 |
| 20260506190954 | 62 | 131 | 0.0 | 0.0 | 0.00 | 0.38 | 0.38 | 98 | 1004.9 |
| 20260506190452 | 62 | 113 | 3.0 | 5.0 | 0.00 | 0.38 | 0.38 | 97 | 1005.3 |
| 20260506185948 | 62 | 101 | 0.0 | 2.0 | 0.06 | 0.37 | 0.37 | 98 | 1004.9 |
| 20260506185446 | 62 | 115 | 0.0 | 0.0 | 0.06 | 0.37 | 0.37 | 97 | 1005.3 |
| 20260506184942 | 61 | 66 | 0.0 | 3.0 | 0.06 | 0.37 | 0.37 | 97 | 1005.3 |
| 20260506184439 | 61 | 116 | 0.0 | 0.0 | 0.05 | 0.36 | 0.36 | 97 | 1005.3 |
| 20260506183936 | 61 | 112 | 0.0 | 0.0 | 0.04 | 0.35 | 0.35 | 97 | 1005.3 |
| 20260506183432 | 61 | 307 | 1.0 | 2.0 | 0.03 | 0.34 | 0.34 | 97 | 1005.3 |
| 20260506182929 | 61 | 86 | 0.0 | 0.0 | 0.02 | 0.33 | 0.33 | 97 | 1005.3 |
| 20260506182426 | 61 | 100 | 0.0 | 0.0 | 0.02 | 0.33 | 0.33 | 97 | 1005.3 |
| 20260506181924 | 61 | 126 | 0.0 | 0.0 | 0.02 | 0.33 | 0.33 | 97 | 1005.3 |
| 20260506181422 | 61 | 118 | 0.0 | 0.0 | 0.02 | 0.33 | 0.33 | 97 | 1005.6 |
| 20260506180918 | 61 | 100 | 0.0 | 2.0 | 0.02 | 0.33 | 0.33 | 97 | 1005.6 |
| 20260506180414 | 61 | 90 | 0.0 | 0.0 | 0.01 | 0.32 | 0.32 | 97 | 1005.6 |
| 20260506175911 | 61 | 85 | 0.0 | 0.0 | 0.04 | 0.31 | 0.31 | 97 | 1005.6 |
| 20260506175408 | 61 | 98 | 1.0 | 2.0 | 0.04 | 0.31 | 0.31 | 97 | 1005.6 |
| 20260506174905 | 61 | 92 | 0.0 | 2.0 | 0.04 | 0.31 | 0.31 | 97 | 1005.6 |
| 20260506174403 | 61 | 104 | 1.0 | 2.0 | 0.03 | 0.30 | 0.30 | 97 | 1005.6 |
| 20260506173859 | 61 | 104 | 0.0 | 0.0 | 0.03 | 0.30 | 0.30 | 97 | 1005.6 |
| 20260506173356 | 61 | 77 | 5.0 | 7.0 | 0.02 | 0.29 | 0.29 | 97 | 1005.6 |
| 20260506172853 | 61 | 102 | 0.0 | 0.0 | 0.02 | 0.29 | 0.29 | 97 | 1005.6 |
| 20260506172350 | 61 | 136 | 0.0 | 2.0 | 0.02 | 0.29 | 0.29 | 97 | 1005.3 |
| 20260506171847 | 61 | 106 | 0.0 | 0.0 | 0.01 | 0.28 | 0.28 | 97 | 1005.6 |
| 20260506171344 | 61 | 83 | 0.0 | 2.0 | 0.01 | 0.28 | 0.28 | 97 | 1005.6 |
| 20260506170842 | 60 | 45 | 0.0 | 2.0 | 0.01 | 0.28 | 0.28 | 97 | 1005.6 |
| 20260506170338 | 60 | 117 | 0.0 | 0.0 | 0.00 | 0.27 | 0.27 | 97 | 1005.6 |
| 20260506165837 | 60 | 127 | 3.0 | 3.0 | 0.09 | 0.27 | 0.27 | 97 | 1005.6 |
| 20260506165335 | 60 | 130 | 0.0 | 0.0 | 0.08 | 0.26 | 0.26 | 97 | 1005.9 |
| 20260506164831 | 60 | 107 | 0.0 | 0.0 | 0.08 | 0.26 | 0.26 | 97 | 1005.9 |
| 20260506164328 | 59 | 104 | 0.0 | 0.0 | 0.07 | 0.25 | 0.25 | 97 | 1006.3 |
| 20260506163825 | 59 | 103 | 0.0 | 0.0 | 0.07 | 0.25 | 0.25 | 97 | 1006.3 |
| 20260506163320 | 59 | 102 | 0.0 | 0.0 | 0.06 | 0.24 | 0.24 | 97 | 1005.9 |
| 20260506162815 | 59 | 106 | 0.0 | 0.0 | 0.05 | 0.23 | 0.23 | 97 | 1006.3 |
| 20260506162314 | 58 | 106 | 0.0 | 0.0 | 0.04 | 0.22 | 0.22 | 97 | 1006.3 |
| 20260506161811 | 58 | 105 | 0.0 | 0.0 | 0.03 | 0.21 | 0.21 | 96 | 1006.3 |
| 20260506161308 | 58 | 103 | 0.0 | 0.0 | 0.03 | 0.21 | 0.21 | 96 | 1006.3 |
| 20260506160806 | 58 | 103 | 0.0 | 0.0 | 0.02 | 0.20 | 0.20 | 96 | 1006.3 |
| 20260506160302 | 58 | 100 | 0.0 | 0.0 | 0.01 | 0.19 | 0.19 | 96 | 1006.3 |
| 20260506155801 | 57 | 106 | 0.0 | 0.0 | 0.08 | 0.18 | 0.18 | 96 | 1006.6 |
| 20260506155257 | 57 | 103 | 0.0 | 0.0 | 0.07 | 0.17 | 0.17 | 96 | 1006.6 |
| 20260506153410 | 57 | 110 | 0.0 | 0.0 | 0.04 | 0.14 | 0.14 | 96 | 1006.9 |
| 20260506152907 | 57 | 104 | 0.0 | 0.0 | 0.04 | 0.14 | 0.14 | 96 | 1006.9 |
| 20260506152404 | 57 | 104 | 0.0 | 0.0 | 0.03 | 0.13 | 0.13 | 96 | 1007.3 |
| 20260506151903 | 57 | 104 | 0.0 | 0.0 | 0.03 | 0.13 | 0.13 | 96 | 1007.3 |
| 20260506151359 | 57 | 103 | 0.0 | 0.0 | 0.02 | 0.12 | 0.12 | 95 | 1006.9 |
| 20260506150857 | 57 | 104 | 0.0 | 0.0 | 0.01 | 0.11 | 0.11 | 95 | 1006.9 |
| 20260506150353 | 57 | 104 | 0.0 | 0.0 | 0.01 | 0.11 | 0.11 | 95 | 1006.9 |
| 20260506145849 | 57 | 104 | 0.0 | 0.0 | 0.08 | 0.10 | 0.10 | 95 | 1007.3 |
| 20260506145345 | 57 | 104 | 0.0 | 0.0 | 0.08 | 0.10 | 0.10 | 95 | 1007.3 |
| 20260506144843 | 57 | 103 | 0.0 | 0.0 | 0.07 | 0.09 | 0.09 | 95 | 1007.6 |
| 20260506144340 | 57 | 104 | 0.0 | 0.0 | 0.07 | 0.09 | 0.09 | 95 | 1007.3 |
| 20260506143838 | 57 | 103 | 0.0 | 0.0 | 0.06 | 0.08 | 0.08 | 95 | 1007.6 |
| 20260506143335 | 57 | 103 | 0.0 | 0.0 | 0.05 | 0.07 | 0.07 | 95 | 1007.3 |
| 20260506142833 | 57 | 104 | 0.0 | 0.0 | 0.04 | 0.06 | 0.06 | 95 | 1007.6 |
| 20260506142331 | 56 | 103 | 0.0 | 0.0 | 0.03 | 0.05 | 0.05 | 95 | 1008.0 |
| 20260506141829 | 57 | 103 | 0.0 | 0.0 | 0.02 | 0.04 | 0.04 | 94 | 1008.0 |
| 20260506141327 | 56 | 103 | 0.0 | 0.0 | 0.01 | 0.03 | 0.03 | 94 | 1008.0 |
| 20260506140825 | 57 | 103 | 0.0 | 0.0 | 0.01 | 0.03 | 0.03 | 94 | 1008.0 |
| 20260506140321 | 56 | 98 | 0.0 | 0.0 | 0.00 | 0.02 | 0.02 | 94 | 1007.6 |
| 20260506135818 | 56 | 103 | 0.0 | 0.0 | 0.02 | 0.02 | 0.02 | 94 | 1007.6 |
| 20260506135314 | 56 | 105 | 0.0 | 0.0 | 0.01 | 0.01 | 0.01 | 94 | 1008.0 |
| 20260506134811 | 56 | 106 | 0.0 | 0.0 | 0.01 | 0.01 | 0.01 | 94 | 1007.6 |
| 20260506134308 | 56 | 106 | 0.0 | 0.0 | 0.01 | 0.01 | 0.01 | 94 | 1007.6 |
| 20260506133804 | 56 | 106 | 0.0 | 0.0 | 0.01 | 0.01 | 0.01 | 94 | 1007.6 |
| 20260506133301 | 56 | 106 | 0.0 | 0.0 | 0.01 | 0.01 | 0.01 | 94 | 1007.3 |
| 20260506132758 | 56 | 106 | 0.0 | 0.0 | 0.01 | 0.01 | 0.01 | 94 | 1007.6 |
| 20260506132255 | 56 | 105 | 0.0 | 0.0 | 0.01 | 0.01 | 0.01 | 94 | 1007.3 |
| 20260506131754 | 56 | 111 | 0.0 | 0.0 | 0.01 | 0.01 | 0.01 | 94 | 1007.3 |
| 20260506131249 | 56 | 98 | 0.0 | 0.0 | 0.01 | 0.01 | 0.01 | 94 | 1007.6 |
| 20260506130746 | 56 | 100 | 0.0 | 0.0 | 0.00 | 0.00 | 0.00 | 94 | 1007.3 |
| 20260506130243 | 56 | 103 | 0.0 | 0.0 | 0.00 | 0.00 | 0.00 | 94 | 1007.6 |
| 20260506125741 | 56 | 110 | 0.0 | 0.0 | 0.00 | 0.00 | 0.00 | 94 | 1008.0 |
| 20260506125239 | 56 | 100 | 0.0 | 0.0 | 0.00 | 0.00 | 0.00 | 94 | 1007.3 |
| 20260506124737 | 56 | 104 | 0.0 | 0.0 | 0.00 | 0.00 | 0.00 | 94 | 1007.3 |
| 20260506124234 | 56 | 103 | 0.0 | 0.0 | 0.00 | 0.00 | 0.00 | 94 | 1007.6 |
| 20260506123731 | 55 | 104 | 0.0 | 0.0 | 0.00 | 0.00 | 0.00 | 94 | 1007.6 |
| 20260506123230 | 55 | 104 | 0.0 | 0.0 | 0.00 | 0.00 | 0.00 | 93 | 1008.0 |
| 20260506122726 | 55 | 93 | 0.0 | 0.0 | 0.00 | 0.00 | 0.00 | 94 | 1008.0 |
| 20260506122224 | 55 | 104 | 0.0 | 0.0 | 0.00 | 0.00 | 0.00 | 94 | 1008.0 |
| 20260506121722 | 55 | 100 | 0.0 | 0.0 | 0.00 | 0.00 | 0.00 | 94 | 1008.6 |
| 20260506121218 | 55 | 98 | 0.0 | 0.0 | 0.00 | 0.00 | 0.00 | 94 | 1008.6 |
| 20260506120716 | 55 | 98 | 0.0 | 0.0 | 0.00 | 0.00 | 0.00 | 94 | 1008.3 |
| 20260506120213 | 55 | 112 | 0.0 | 0.0 | 0.00 | 0.00 | 0.00 | 94 | 1008.3 |
| 20260506115711 | 55 | 106 | 0.0 | 0.0 | 0.00 | 0.00 | 0.00 | 94 | 1008.3 |
| 20260506115209 | 55 | 95 | 0.0 | 0.0 | 0.00 | 0.00 | 0.00 | 94 | 1008.3 |
| 20260506114706 | 55 | 113 | 0.0 | 0.0 | 0.00 | 0.00 | 0.00 | 94 | 1008.6 |
| 20260506114204 | 55 | 103 | 0.0 | 0.0 | 0.00 | 0.00 | 0.00 | 94 | 1008.3 |
| 20260506113703 | 55 | 119 | 0.0 | 0.0 | 0.00 | 0.00 | 0.00 | 94 | 1008.0 |
| 20260506113200 | 55 | 101 | 0.0 | 0.0 | 0.00 | 0.00 | 0.00 | 94 | 1008.0 |
| 20260506112655 | 55 | 108 | 0.0 | 0.0 | 0.00 | 0.00 | 0.00 | 94 | 1008.0 |
| 20260506112153 | 55 | 102 | 0.0 | 0.0 | 0.00 | 0.00 | 0.00 | 94 | 1008.0 |
| 20260506111651 | 55 | 103 | 0.0 | 0.0 | 0.00 | 0.00 | 0.00 | 95 | 1008.0 |
| 20260506111148 | 55 | 137 | 1.0 | 2.0 | 0.00 | 0.00 | 0.00 | 95 | 1008.0 |
| 20260506110646 | 55 | 113 | 0.0 | 0.0 | 0.00 | 0.00 | 0.00 | 95 | 1007.3 |
| 20260506110143 | 55 | 100 | 0.0 | 0.0 | 0.00 | 0.00 | 0.00 | 95 | 1007.6 |
| 20260506105639 | 55 | 104 | 0.0 | 0.0 | 0.00 | 0.00 | 0.00 | 95 | 1007.6 |
| 20260506105136 | 55 | 110 | 0.0 | 0.0 | 0.00 | 0.00 | 0.00 | 95 | 1008.0 |
| 20260506104634 | 55 | 77 | 0.0 | 2.0 | 0.00 | 0.00 | 0.00 | 95 | 1007.6 |
| 20260506104132 | 54 | 98 | 0.0 | 0.0 | 0.00 | 0.00 | 0.00 | 95 | 1007.3 |
| 20260506103629 | 54 | 79 | 0.0 | 2.0 | 0.00 | 0.00 | 0.00 | 95 | 1007.6 |
| 20260506103125 | 54 | 103 | 0.0 | 0.0 | 0.00 | 0.00 | 0.00 | 95 | 1008.0 |
| 20260506102624 | 54 | 103 | 0.0 | 0.0 | 0.00 | 0.00 | 0.00 | 95 | 1007.6 |
| 20260506102121 | 54 | 105 | 0.0 | 0.0 | 0.00 | 0.00 | 0.00 | 95 | 1007.3 |
| 20260506101617 | 54 | 105 | 0.0 | 0.0 | 0.00 | 0.00 | 0.00 | 95 | 1007.3 |
| 20260506101114 | 54 | 98 | 0.0 | 0.0 | 0.00 | 0.00 | 0.00 | 94 | 1007.6 |
| 20260506100613 | 54 | 94 | 0.0 | 0.0 | 0.00 | 0.00 | 0.00 | 95 | 1007.6 |
| 20260506100110 | 54 | 104 | 0.0 | 0.0 | 0.00 | 0.00 | 0.00 | 94 | 1007.3 |
| 20260506095609 | 54 | 106 | 0.0 | 0.0 | 0.00 | 0.00 | 0.00 | 94 | 1007.3 |
| 20260506095105 | 54 | 107 | 0.0 | 0.0 | 0.00 | 0.00 | 0.00 | 94 | 1007.3 |
| 20260506094603 | 54 | 104 | 0.0 | 0.0 | 0.00 | 0.00 | 0.00 | 94 | 1007.3 |
| 20260506094100 | 54 | 104 | 0.0 | 0.0 | 0.00 | 0.00 | 0.00 | 94 | 1007.3 |
| 20260506093559 | 54 | 104 | 0.0 | 0.0 | 0.00 | 0.00 | 0.00 | 94 | 1007.6 |
| 20260506093055 | 54 | 104 | 0.0 | 0.0 | 0.00 | 0.00 | 0.00 | 94 | 1007.3 |
| 20260506092554 | 54 | 105 | 0.0 | 0.0 | 0.00 | 0.00 | 0.00 | 94 | 1007.3 |
| 20260506092050 | 54 | 104 | 0.0 | 0.0 | 0.00 | 0.00 | 0.00 | 94 | 1007.3 |
| 20260506091548 | 54 | 102 | 0.0 | 0.0 | 0.00 | 0.00 | 0.00 | 94 | 1007.3 |
| 20260506091045 | 54 | 102 | 0.0 | 0.0 | 0.00 | 0.00 | 0.00 | 94 | 1007.3 |
| 20260506090543 | 54 | 104 | 0.0 | 0.0 | 0.00 | 0.00 | 0.00 | 94 | 1007.6 |
| 20260506090039 | 54 | 104 | 0.0 | 0.0 | 0.00 | 0.00 | 0.00 | 94 | 1007.6 |
| 20260506085536 | 54 | 104 | 0.0 | 0.0 | 0.00 | 0.00 | 0.00 | 94 | 1007.3 |
| 20260506085032 | 54 | 104 | 0.0 | 0.0 | 0.00 | 0.00 | 0.00 | 94 | 1007.6 |
| 20260506084530 | 54 | 104 | 0.0 | 0.0 | 0.00 | 0.00 | 0.00 | 94 | 1007.6 |
| 20260506084025 | 55 | 104 | 0.0 | 0.0 | 0.00 | 0.00 | 0.00 | 94 | 1007.6 |
| 20260506083523 | 54 | 104 | 0.0 | 0.0 | 0.00 | 0.00 | 0.00 | 94 | 1007.6 |
| 20260506083020 | 54 | 104 | 0.0 | 0.0 | 0.00 | 0.00 | 0.00 | 93 | 1007.6 |
| 20260506082517 | 55 | 104 | 0.0 | 0.0 | 0.00 | 0.00 | 0.00 | 93 | 1008.0 |
| 20260506082013 | 55 | 104 | 0.0 | 0.0 | 0.00 | 0.00 | 0.00 | 93 | 1008.0 |
| 20260506081511 | 55 | 104 | 0.0 | 0.0 | 0.00 | 0.00 | 0.00 | 93 | 1008.0 |
| 20260506081008 | 55 | 104 | 0.0 | 0.0 | 0.00 | 0.00 | 0.00 | 93 | 1007.6 |
| 20260506080506 | 55 | 104 | 0.0 | 0.0 | 0.00 | 0.00 | 0.00 | 93 | 1008.0 |
| 20260506073449 | 55 | 104 | 0.0 | 0.0 | 0.00 | 0.00 | 0.00 | 93 | 1008.3 |
| 20260506072946 | 55 | 104 | 0.0 | 0.0 | 0.00 | 0.00 | 0.00 | 93 | 1008.6 |
| 20260506072443 | 55 | 104 | 0.0 | 0.0 | 0.00 | 0.00 | 0.00 | 93 | 1008.6 |
| 20260506071941 | 56 | 104 | 0.0 | 0.0 | 0.00 | 0.00 | 0.00 | 93 | 1008.6 |
| 20260506071439 | 56 | 104 | 0.0 | 0.0 | 0.00 | 0.00 | 0.00 | 93 | 1008.3 |
| 20260506070935 | 56 | 104 | 0.0 | 0.0 | 0.00 | 0.00 | 0.00 | 93 | 1008.6 |
| 20260506070432 | 56 | 104 | 0.0 | 0.0 | 0.00 | 0.00 | 0.00 | 93 | 1008.6 |
| 20260506062410 | 56 | 102 | 0.0 | 0.0 | 0.00 | 0.00 | 0.00 | 92 | 1009.0 |
| 20260506061906 | 56 | 102 | 0.0 | 0.0 | 0.00 | 0.00 | 0.00 | 92 | 1009.0 |
| 20260506061403 | 56 | 102 | 0.0 | 0.0 | 0.00 | 0.00 | 0.00 | 92 | 1009.0 |
| 20260506060901 | 56 | 100 | 0.0 | 0.0 | 0.00 | 0.00 | 0.00 | 92 | 1009.0 |
| 20260506060358 | 56 | 100 | 0.0 | 0.0 | 0.00 | 0.00 | 0.00 | 92 | 1009.0 |
| 20260506051330 | 57 | 114 | 0.0 | 0.0 | 0.00 | 0.00 | 0.00 | 92 | 1009.0 |
| 20260506050828 | 57 | 117 | 0.0 | 0.0 | 0.00 | 0.00 | 0.00 | 92 | 1009.0 |
| 20260506050325 | 57 | 110 | 0.0 | 0.0 | 0.00 | 0.00 | 0.00 | 91 | 1009.0 |
| 20260506044815 | 58 | 110 | 0.0 | 0.0 | 0.00 | 0.00 | 0.00 | 91 | 1009.3 |
| 20260506044314 | 58 | 107 | 0.0 | 0.0 | 0.00 | 0.00 | 0.00 | 91 | 1009.3 |
| 20260506043810 | 58 | 104 | 0.0 | 0.0 | 0.00 | 0.00 | 0.00 | 90 | 1009.0 |
| 20260506043308 | 58 | 111 | 0.0 | 0.0 | 0.00 | 0.00 | 0.00 | 90 | 1009.0 |
| 20260506042806 | 58 | 104 | 0.0 | 0.0 | 0.00 | 0.00 | 0.00 | 90 | 1009.0 |
| 20260506042305 | 58 | 101 | 0.0 | 0.0 | 0.00 | 0.00 | 0.00 | 90 | 1009.3 |
| 20260506041803 | 58 | 131 | 0.0 | 0.0 | 0.00 | 0.00 | 0.00 | 90 | 1009.0 |
| 20260506041259 | 58 | 123 | 0.0 | 0.0 | 0.00 | 0.00 | 0.00 | 91 | 1009.0 |